Weather History for Greensboro, NC

Change the Weather History Date:

Thursday, April 25, 2013

  Actual Average Record
Temperature  
Mean Temperature 59 °F 61 °F  
Max Temperature 69 °F 73 °F 94 °F (1925)
Min Temperature 48 °F 50 °F 32 °F (1930)
Degree Days  
Heating Degree Days 6 5  
Month to date heating degree days 165 197  
Since 1 July heating degree days 3510 3522  
Cooling Degree Days 0 2  
Month to date cooling degree days 37 27  
Year to date cooling degree days 37 32  
Growing Degree Days 8 (Base 50)    
Moisture  
Dew Point 36 °F    
Average Humidity 45    
Maximum Humidity 73    
Minimum Humidity 17    
Precipitation  
Precipitation 0.00 in 0.12 in 1.75 in (1978)
Month to date precipitation 2.04 3.01  
Year to date precipitation 13.56 12.76  
Snow  
Snow 0.00 in 0.00 in 0.00 in ()
Month to date snowfall T 0.1  
Since 1 July snowfall 3.6 7.6  
Snow Depth 0.00 in    
Sea Level Pressure  
Sea Level Pressure 30.18 in    
Wind  
Wind Speed 5 mph (NNW)    
Max Wind Speed 21 mph    
Max Gust Speed 25 mph    
Visibility 10 miles    
Events      
T = Trace of Precipitation, MM = Missing Value Source: NWS Daily Summary

Daily Weather History Graph

Daily Weather History Graph

Search for Another Location

Airport:

Trip Planner

Search our weather history database for the weather conditions in past years. The results will help you decide how hot, cold, wet, or windy it might be!

Date:

Astronomy

Apr. 25, 2013 Rise Set
Actual Time 6:33 AM EDT 8:02 PM EDT
Civil Twilight 6:06 AM EDT 8:29 PM EDT
Nautical Twilight 5:34 AM EDT 9:01 PM EDT
Astronomical Twilight 5:00 AM EDT 9:36 PM EDT
Moon 8:12 PM EDT (4/25) 6:15 AM EDT (4/25)
Length of Visible Light 14h 22m
Length of Day
13h 28m
Full, 100% of the Moon is Illuminated
Apr 25
Full
Apr 25
Full
May 2
Last Quarter
May 9
New
May 18
First Quarter

Hourly Weather History & Observations

Time (EDT) Temp. Dew Point Humidity Pressure Visibility Wind Dir Wind Speed Gust Speed Precip Events Conditions
12:54 AM 64.0 °F 55.0 °F 73% 30.01 in 10.0 mi WSW 10.4 mph - N/A   Mostly Cloudy
1:24 AM 64.4 °F 53.6 °F 68% 30.05 in 10.0 mi NW 20.7 mph 25.3 mph N/A   Overcast
1:54 AM 62.1 °F 51.1 °F 67% 30.04 in 10.0 mi NNW 11.5 mph - N/A   Overcast
2:13 AM 60.8 °F 50.0 °F 68% 30.07 in 10.0 mi NW 8.1 mph - N/A   Overcast
2:54 AM 57.9 °F 45.0 °F 62% 30.05 in 10.0 mi NNW 9.2 mph - N/A   Mostly Cloudy
3:54 AM 57.0 °F 43.0 °F 59% 30.07 in 10.0 mi NNW 11.5 mph - N/A   Overcast
4:54 AM 55.0 °F 41.0 °F 59% 30.12 in 10.0 mi NNW 6.9 mph - N/A   Mostly Cloudy
5:54 AM 52.0 °F 37.9 °F 59% 30.15 in 10.0 mi North 5.8 mph - N/A   Mostly Cloudy
6:54 AM 48.0 °F 34.0 °F 58% 30.20 in 10.0 mi North 5.8 mph - N/A   Scattered Clouds
7:54 AM 48.9 °F 33.1 °F 54% 30.22 in 10.0 mi North 9.2 mph 17.3 mph N/A   Mostly Cloudy
8:54 AM 50.0 °F 32.0 °F 50% 30.24 in 10.0 mi North 11.5 mph 18.4 mph N/A   Scattered Clouds
9:54 AM 52.0 °F 32.0 °F 47% 30.24 in 10.0 mi North 5.8 mph 18.4 mph N/A   Clear
10:54 AM 55.0 °F 34.0 °F 45% 30.24 in 10.0 mi NNE 8.1 mph - N/A   Clear
11:54 AM 57.9 °F 35.1 °F 42% 30.24 in 10.0 mi Variable 3.5 mph - N/A   Clear
12:54 PM 60.1 °F 33.1 °F 36% 30.24 in 10.0 mi NNW 8.1 mph - N/A   Clear
1:54 PM 64.0 °F 34.0 °F 33% 30.22 in 10.0 mi Calm Calm - N/A   Clear
2:54 PM 64.0 °F 32.0 °F 30% 30.21 in 10.0 mi WSW 3.5 mph - N/A   Clear
3:54 PM 66.0 °F 28.0 °F 24% 30.20 in 10.0 mi Calm Calm - N/A   Clear
4:54 PM 68.0 °F 26.1 °F 21% 30.18 in 10.0 mi North 3.5 mph - N/A   Clear
5:54 PM 68.0 °F 24.1 °F 19% 30.18 in 10.0 mi WSW 3.5 mph - N/A   Clear
6:54 PM 68.0 °F 23.0 °F 18% 30.19 in 10.0 mi Calm Calm - N/A   Clear
7:54 PM 64.0 °F 26.1 °F 24% 30.20 in 10.0 mi Calm Calm - N/A   Clear
8:54 PM 59.0 °F 33.1 °F 38% 30.23 in 10.0 mi Calm Calm - N/A   Clear
9:54 PM 57.9 °F 36.0 °F 44% 30.26 in 10.0 mi Calm Calm - N/A   Clear
10:54 PM 57.0 °F 30.0 °F 36% 30.28 in 10.0 mi NNW 3.5 mph - N/A   Clear
11:54 PM 52.0 °F 35.1 °F 53% 30.28 in 10.0 mi Calm Calm - N/A   Clear